www.pogodaiklimat.ru

Погода и климат >> Архив погоды >> Россия >> Еврейская автономная область >> Екатерино-Никольское


АРХИВ ПОГОДЫ в Екатерино-Никольском

Время (UTC), дата Ветер
(напр.,м/с)
 
Видим.   Явления Облачность Т
(С)
Тd
(С)
f
(%)
Тe
(С)
Тes
(С)
Комфортность P
(гПа)
Po
(гПа)
Тmin
(С)
Tmax
(С)
R
(мм)
R24
(мм)
S
(см)
00 16.04 В 2 50 км 10/0
[As trans Ci fib]
+10.0 -3.0 40 +9 +14 1000.0 991.4 -2.0
03 16.04 Ю 6
{11}
50 км 10/3 600 м
[Sc Ac trans Ci fib]
+21.0 -4.3 18 +20 +22 996.7 988.4
06 16.04 Ю 7-13
{15}
50 км 10/0
[Ac trans Ci fib]
+24.0 -3.0 16 +22 +24 комфорт 993.2 985.0
09 16.04 ЮЗ 4
{16}
50 км 10/8 600 м
[Sc Ac As Ci fib]
+22.5 -8.2 12 +21 +21 комфорт 993.5 985.3
12 16.04 СЗ 7-12
{16}
20 км 10/8 600 м
[Sc Ac und Ci fib]
+11.3 -2.5 38 +9 +9 998.8 990.2
15 16.04 С 3
{12}
20 км 10/8
[Sc Ac und Ci fib]
+8.6 -3.4 43 +7 +7 1002.8 994.1
18 16.04 СЗ 3 20 км 8/6 600 м
[Sc Ac trans Ci fib]
+6.9 -6.5 38 +5 +5 1004.7 995.9
21 16.04 СЗ 3 н/о н/о +4.7 -7.6 40 +2 +2 1004.9 996.1 +4.6
00 17.04 С 1 50 км 10/3 600 м
[Sc Ac As Cs]
+9.7 -8.1 28 +10 +13 1004.7 996.0
03 17.04 В 4 20 км 10/0
[Ac As Cs]
+12.8 -9.0 21 +12 +15 1001.9 993.4
06 17.04 В 3 20 км 10/0
[Ac As Cs]
+16.8 -5.4 21 +17 +17 998.1 989.7
09 17.04 В 5
{10}
н/о н/о +15.2 -1.1 33 +14 +14 994.8 986.4 +17.8
12 17.04 СВ 2 20 км 10/8 600 м
[Sc Ac und Ci fib]
+11.0 -3.7 35 +10 +10 993.2 984.5
15 17.04 С 1 20 км 10/8 600 м
[Sc Ac trans Ci fib]
+9.9 -3.4 39 +10 +10 991.4 982.8
18 17.04 СВ 1 10 км слаб. ливневой дождь 10/8 600 м
[Sc Ac As]
+5.6 +2.0 78 +5 +5 989.6 980.9
21 17.04 Ю 4 20 км {ливн. осадки} 10/8 600 м
[Sc Ac As]
+5.5 +4.0 90 +1 +1 988.2 979.5 +5.6 1
00 18.04 З 7-14
{14}
50 км {ливн. осадки} 8/8 600 м
[Cb cap]
+3.8 -1.6 68 -2 -1 994.2 985.4 +3.5
03 18.04 СЗ 7-12
{14}
50 км 10/10 600 м
[Cb cap]
+2.4 -5.0 58 -3 -3 1000.2 991.3
06 18.04 СЗ 8-13
{17}
50 км 10/10 600 м
[Cb cap]
+1.4 -5.9 58 -5 -5 1004.3 995.3
09 18.04 СЗ 9-17
{17}
50 км 10/6 600 м
[Sc Ac As Ci fib]
+4.5 -12.5 28 -1 -1 1006.4 997.5 +6.5 0.0
12 18.04 СЗ 6-13
{18}
20 км 10/5 600 м
[Sc Ac As Ci fib]
+3.2 -16.7 22 -1 -1 1009.2 1000.3
15 18.04 З 4-11
{14}
20 км 10/0
[Ac As Ci fib]
+1.9 -17.8 22 -2 -2 1010.5 1001.5
18 18.04 СЗ 5-10
{12}
20 км 6/0
[Ci fib]
+0.5 -17.4 25 -4 -4 1010.8 1001.8
21 18.04 З 3
{10}
50 км 6/0
[Ac As Ci fib]
-0.9 -17.0 28 -5 -4 1011.9 1002.8 -1.1
00 19.04 СЗ 6-12
{17}
н/о 4/0
[Ac trans Ci fib]
+2.6 -16.0 24 -2 0 1012.8 1003.8 -1.1
03 19.04 СЗ 8-13
{14}
50 км 3/0
[Ci fib]
+6.1 -15.4 20 +2 +4 1012.9 1004.1
06 19.04 СЗ 12 50 км 3/0
[Ci fib]
-7.4 -14.5 57 -18 -18 1012.6 1003.8
09 19.04 С 12-12
{18}
50 км 4/0
[Ac trans Ci fib]
+7.1 -16.2 17 +2 +2 1011.6 1004.3 +7.4
12 19.04 СЗ 1 20 км ясно +1.1 -15.9 27 0 0 1014.9 1005.8
15 19.04 СЗ 1 20 км 3/0
[Ci fib]
-4.3 -11.7 56 -6 -6 1015.3 1006.1
18 19.04 СЗ 1 20 км 6/0
[Ci fib]
-7.0 -12.3 66 -9 -9 1014.2 1004.9
21 19.04 СЗ 1 50 км 8/0
[Ac trans Ci fib]
-7.0 -11.6 70 -9 -9 1013.4 1004.1 -8.3
00 20.04 Ю 2 50 км 6/0
[Ac trans Ci fib]
+4.3 -10.6 33 +3 +8 1012.3 1003.3
03 20.04 Ю 4 50 км 6/3
[Sc Ac trans Ci fib]
+10.8 -14.0 16 +9 +15 1008.8 1000.1
06 20.04 ЮВ 5 50 км 8/5 600 м
[Sc Ac trans Ci fib]
+12.9 -13.6 14 +11 +13 1004.2 995.6
09 20.04 В 4 50 км 10/8 600 м
[Sc Ac trans Ci fib]
+12.6 -11.3 18 +11 +11 1001.7 993.1 +13.6
12 20.04 СВ 5 20 км 10/10 600 м
[]
+8.7 -7.3 31 +6 +6 1002.4 993.7
15 20.04 штиль 0 20 км 8/6 600 м
[Sc Ac trans Ci fib]
+1.8 -6.8 53 +1 +1 1005.1 996.1
18 20.04 СЗ 2 20 км 6/0
[Ac trans Ci fib]
+4.5 -11.7 30 +3 +3 1007.0 998.1
21 20.04 З 2 50 км 6/0
[Ac trans Ci fib]
+2.5 -11.0 36 0 +1 1009.3 1000.4 +0.4
00 21.04 С 3 50 км 5/0
[Ci fib]
+8.7 -11.7 22 +7 +13 1010.7 1001.9
03 21.04 З 5-11
{12}
50 км 8/6 600 м
[Cu med, cong Ci fib]
+12.3 -15.3 13 +11 +13 1009.7 1001.1
06 21.04 З 4
{11}
50 км 10/8 600 м
[Cu hum Ci fib]
+13.4 -15.6 12 +12 +13 1008.9 1000.3
09 21.04 СЗ 3
{12}
50 км 10/6
[Sc diur, vesp Ci fib]
+12.6 -15.2 13 +12 +12 1009.2 1000.5 +14.0
12 21.04 СЗ 2 20 км 10/0
[Ac trans Ci fib]
+5.2 -11.7 28 +4 +4 1012.6 1003.7
15 21.04 штиль 0 20 км 6/0
[Ci fib]
-2.3 -10.1 55 -3 -3 1014.3 1005.2
18 21.04 З 2 20 км 4/0
[Ci fib]
-2.8 -10.7 54 -6 -6 1015.5 1006.3
21 21.04 СЗ 1 50 км 6/0
[Ac trans Ci fib]
-5.2 -9.2 73 -7 -7 1016.1 1006.8 -6.6
00 22.04 Ю 2 50 км 8/0
[Ac trans Ci fib]
+7.8 -8.1 31 +7 +12 1016.3 1007.5
03 22.04 Ю 5 50 км 10/0
[Ac As Ci fib]
+14.6 -13.2 13 +13 +18 1014.2 1005.6
06 22.04 Ю 6
{11}
50 км 10/0
[Ac As Ci fib]
+17.1 -12.8 12 +16 +18 1011.0 1002.5
09 22.04 Ю 5 50 км 10/0
[Ac As Ci fib]
+16.8 -11.9 13 +16 +16 1008.7 1000.2 +17.8
12 22.04 ЮВ 4 20 км 10/0
[Ac As Cs]
+10.7 -8.1 26 +9 +9 1008.8 1000.2
15 22.04 СЗ 1 20 км 10/0
[Ac As Ci fib]
+10.1 -8.2 27 +10 +10 1006.9 998.3
18 22.04 СВ 2 10 км слаб. дождь 10/0
[As op]
+5.4 +3.5 88 +3 +3 1005.9 996.5
21 22.04 СВ 2 20 км {дождь} 10/8 600 м
[Sc Ac As Ci fib]
+4.5 +2.3 86 +2 +2 1003.2 994.4 +4.3 0.4

 

Местоположение метеостанции Екатерино-Никольское (Еврейская автономная область, Россия): широта 47.75 долгота 130.90 высота над уровнем моря 72 м.

В архиве по умолчанию представлена погода в Екатерино-Никольском за последнюю неделю. Архивные данные за месяц целиком и за предыдущие месяцы, начиная с января 2011 года, Вы можете получить, выбрав интересующий диапазон дат из раскрывающегося списка и нажав кнопку "Ввод!".


*Определитесь, кто Вы:
робот инопланетянин человек

Внимание! Время в таблицах - всемирное. Для получения местного времени необходимо прибавить поправку, которая равна 10 ч.

Смотрите также архив погоды в соседних городах и на ближайших метеорологических станциях:

Погода в Биджане (Еврейская автономная область, Россия) (76 км)
Погода в Фуцзине (Хэйлунцзян, Китай) (100 км)
Погода в Ленинское (Еврейская автономная область, Россия) (129 км)
Погода в Облучье (Еврейская автономная область, Россия) (139 км)
Погода в Ичунь (Хэйлунцзян, Китай) (150 км)
Погода в Биробиджане (Еврейская автономная область, Россия) (184 км)
Погода в Баоцине (Хэйлунцзян, Китай) (186 км)
Погода в Архаре (Амурская область, Россия) (197 км)
Погода в Смидовиче (Еврейская автономная область, Россия) (235 км)
Погода в Малиновке (Амурская область, Россия) (237 км)

Пояснения к столбцам:

Ветер - указаны скорость ветра в м/с - средняя за 10 мин, порывы в срок и между сроками (в фигурных скобках) и направление, откуда дует ветер: С - северный, СВ - северо-восточный, В - восточный, ЮВ - юго-восточный, Ю - южный, ЮЗ - юго-западный, З - западный, СЗ - северо-западный.
Видимость - горизонтальная дальность видимости в метрах или километрах. При видимости от 1 до 10 км при отсутствии осадков обычно наблюдается дымка, при ухудшении видимости до 1 км и менее - туман. В сухую погоду видимость может ухудшаться дымом, пылью или мглою.
Явления - указаны атмосферные явления, наблюдавшиеся в срок или в последний час перед сроком; фигурными скобками обозначены явления, наблюдавшиеся между сроками (за 1-3 часа до срока); квадратными скобками обозначены град или гололедные отложения с указанием их диаметра в мм.
Облачность - указаны через наклонную черту общая и нижняя облачность в баллах и высота нижней границы облаков в метрах; квадратными скобками обозначены формы облаков: Ci - перистые, Cs - перисто-слоистые, Cc - перисто-кучевые, Ac - высококучевые, As - высокослоистые, Sc - слоисто-кучевые, Ns - слоисто-дождевые, Cu - кучевые, Cb - кучево-дождевые. Подробнее классификацию облаков см. в Атласе облаков (PDF).
T - Температура воздуха - температура, измеренная на высоте 2 м над землей.
Td - Температура точки росы - температура, при понижении до которой содержащийся в воздухе водяной пар достигнет насыщения.
f - Относительная влажность воздуха - влажноcть воздуха, измеренная на высоте 2 м над землей.
Te - Эффективная температура - температура, которую ощущает одетый по сезону человек в тени. Характеристика душности погоды. При расчете учитывается влияние влажности воздуха и скорости ветра на теплоощущения человека.
Tes - Эффективная температура на солнце - температура, которую ощущает человек, с поправкой на солнечный нагрев. Характеристика знойности погоды. Зависит от высоты солнца над горизонтом, облачности и скорости ветра. Ночью, в пасмурную погоду, а также при ветре 12 м/с и более поправка равна нулю.
P - Атмосферное давление - приведенное к уровню моря атмосферное давление.
Po - Атмосферное давление - измеренное на уровне метеостанции атмосферное давление.
Tmin - Минимальная температура - минимум температуры воздуха на высоте 2 м над землей.
Tmax - Максимальная температура - максимум температуры воздуха на высоте 2 м над землей.
R - Количество осадков - Количество выпавших осадков за период времени, мм. При наведении курсора мыши на число - период времени, за который выпало указанное количество осадков.
R24 - Количество осадков - Количество выпавших осадков за 24 часа, мм.
S - Снежный покров - Высота снежного покрова, см. При наведении курсора мыши на число - состояние снежного покрова и степень покрытия местности в баллах.